Location: Unspecified
(0.0000°N, 0.0000°E)
Time: 15:55:05
(UTC+00:00)

CZ-3C DEB - Pass Details

Date: 18 February 2026
Orbit: 380 x 28980 km, 20.3° (Epoch: 21 March)

Event Time Altitude Azimuth Distance (km) Brightness Sun altitude
Rises 19:46:42 0° 270° (W) 17,794 ? -22.7°
Reaches altitude 10° 20:12:10 10° 275° (W) 21,296 ? -28.9°
Enters shadow 02:02:12 17° 294° (WNW) 13,785 ? -60.8°
Exits shadow 02:44:59 11° 106° (ESE) 2,652 ? -50.8°
Drops below altitude 10° 02:45:05 10° 106° (ESE) 2,687 ? -50.8°
Sets 02:46:29 0° 107° (ESE) 3,242 ? -50.4°
